Location: Unspecified
(0.0000°N, 0.0000°E)
Time: 11:24:59
(UTC+00:00)

Transit 2A - Pass Details

Date: 26 November 2019
Orbit: 602 x 957 km, 66.7° (Epoch: 07 December)

Event Time Altitude Azimuth Distance (km) Brightness Sun altitude
Rises 09:22:43 0° 215° (SW) 3,494 9.4 49.0°
Reaches altitude 10° 09:25:30 10° 224° (SW) 2,502 8.7 49.6°
Maximum altitude 09:30:42 35° 288° (WNW) 1,279 7.2 50.7°
Drops below altitude 10° 09:35:27 10° 353° (N) 2,274 8.3 51.6°
Sets 09:37:54 0° 3° (N) 3,136 9.0 52.1°
